Find Local Weather

World > North America > United States > Illinois

Hawthorne School, Illinois Regional Weather

Lat: 41.88N, Lon: 88.07W
Wx Zone: ILZ013
Warning FLW WEATHER ALERT - (More Info. Click Here) Warning
Feedback
Expires:201811192300;;558419
ASUS43 KLOT 192208
RWRIL 

ILLINOIS REGIONAL WEATHER ROUNDUP
NATIONAL WEATHER SERVICE CHICAGO/ROMEOVILLE IL
400 PM CST MON NOV 19 2018

NOTE: "FAIR" INDICATES FEW OR NO CLOUDS BELOW 12,000 FEET WITH NO
SIGNIFICANT WEATHER AND/OR OBSTRUCTIONS TO VISIBILITY.

* THESE STATIONS ARE NOT UNDER NWS QUALITY CONTROL. THEY ALSO MAY NOT
  REPORT WEATHER SUCH AS PRECIPITATION OR FOG.


ILZ005-006-012>014-019>023-192300-
NORTHEAST ILLINOIS
  
CITY           SKY/WX    TMP DP  RH WIND       PRES   REMARKS
CHICAGO-OHARE  MOCLDY    33  25  72 SW7       30.02R WCI  27          
CHICAGO-MIDWAY MOCLDY    33  24  69 W9        30.02S WCI  25          
AURORA         MOCLDY    31  27  85 W3        30.03R                  
LANSING*       FAIR      32  26  76 NW6       30.03S WCI  27          
JOLIET*        MOCLDY    34  29  82 SW3       30.03R                  
WAUKEGAN       CLOUDY    34  24  67 W3        30.00R                  
DUPAGE AIRPORT FAIR      32  26  78 SW8       30.02R WCI  25          
KANKAKEE*      MOCLDY    33  28  83 W8        30.06R WCI  26          
WHEELING       MOCLDY    35  24  64 W7        30.03R WCI  29          
MORRIS*        MOCLDY    33  30  87 SW6       30.03R WCI  28          
ROMEOVILLE*    MOCLDY    32  28  85 W8        30.03R WCI  25          
NORTHERLY ISL    N/A     33  24  70 SW8         N/A  WCI  26          
$$


SKY/WX - Weather  TMP - Temperature  DP - Dew Point  RH - Relative Humidity
WIND - Wind Direction/Speed PRES - Barometric Pressure